This demonstration page uses our WeatherBlox Daily Observations layout. Learn more.

Left ArrowRight Arrow

Hourly Observations for February 17, 2015

Temp ( °F °C ) Dew Point ( °F °C ) Humidity (%) Winds ( mph kmh ) Pressure ( in mb ) Visibility ( mi km ) Precip ( " mm )
12:09 am 00:09 Cloudy with Light Rain 36 2.2 30 -1.1 79 79 E 14 22 30.21 1023 10 16 0.00 0.03
12:53 am 00:53 Cloudy with Light Snow 36 2.2 31 -0.6 82 82 E 10 17 30.17 1022 5 8 0.01 0.25
1:06 am 01:06 Cloudy with Light Snow 34 1.1 30 -1.1 85 85 ESE 14 22 30.30 1026 3 4 0.01 0.25
1:17 am 01:17 Cloudy with Light Snow 34 1.1 30 -1.1 85 85 ESE 14 22 30.30 1026 4 6 0.01 0.25
1:31 am 01:31 Cloudy with Light Snow 34 1.1 30 -1.1 85 85 ESE 14 22 30.27 1025 7 11 0.01 0.25
1:53 am 01:53 Cloudy 34 1.1 30 -1.1 85 85 E 12 19 30.15 1021 10 16 0.01 0.25
2:53 am 02:53 Cloudy 34 1.1 29 -1.7 82 82 ESE 10 17 30.15 1021 10 16 0.00 0.03
3:08 am 03:08 Cloudy 34 1 28 -2 81 81 E 7 11 30.30 1026 10 16 0.00 0.00
3:17 am 03:17 Cloudy with Light Snow 34 1.1 29 -1.7 82 82 E 10 17 30.30 1026 9 14 0.00 0.03
3:53 am 03:53 Cloudy 34 1.1 29 -1.7 82 82 E 10 17 30.16 1021 10 16 0.00 0.03
4:06 am 04:06 Cloudy 34 1.1 29 -1.7 82 82 E 9 15 30.30 1026 10 16 0.00 0.00
4:53 am 04:53 Cloudy 35 1.7 29 -1.7 78 78 ENE 7 11 30.18 1022 10 16 0.00 0.00
5:53 am 05:53 Cloudy 35 1.7 29 -1.7 78 78 E 9 15 30.18 1022 10 16 0.00 0.00
6:53 am 06:53 Cloudy 35 1.7 29 -1.7 78 78 ESE 6 9 30.21 1023 10 16 0.00 0.00
7:53 am 07:53 Cloudy 35 1.7 28 -2.2 76 76 E 3 6 30.23 1024 10 16 0.00 0.00
8:53 am 08:53 Cloudy 36 2.2 29 -1.7 76 76 Calm 30.24 1024 10 16 0.00 0.00
9:53 am 09:53 Cloudy 37 2.8 29 -1.7 73 73 Calm 30.26 1025 10 16 0.00 0.00
10:28 am 10:28 Cloudy 37 3 28 -2 70 70 Calm 30.33 1027 10 16 0.00 0.00
10:53 am 10:53 Cloudy 38 3.3 28 -2.2 68 68 W 5 7 30.27 1025 10 16 0.00 0.00
11:27 am 11:27 Mostly Cloudy 40 4.4 30 -1.1 68 68 SSW 7 11 30.33 1027 10 16 0.00 0.00
11:53 am 11:53 Cloudy 40 4.4 29 -1.7 65 65 Calm 30.27 1025 10 16 0.00 0.00
12:53 pm 12:53 Cloudy 40 4.4 28 -2.2 63 63 WNW 3 6 30.26 1025 10 16 0.00 0.00
1:37 pm 13:37 Cloudy 42 5.6 29 -1.7 60 60 SW 3 6 30.27 1025 10 16 0.00 0.00
1:44 pm 13:44 Cloudy 43 6 28 -2 57 57 VRB 6 9 30.27 1025 10 16 0.00 0.00
1:53 pm 13:53 Cloudy 42 5.6 29 -1.7 60 60 WSW 6 9 30.22 1023 10 16 0.00 0.00
2:53 pm 14:53 Mostly Cloudy 47 8.3 30 -1.1 52 52 undefined N/A 30.18 1022 10 16 0.00 0.00
3:53 pm 15:53 Mostly Sunny 47 8.3 29 -1.7 50 50 W 8 13 30.17 1022 10 16 0.00 0.00
4:53 pm 16:53 Mostly Sunny 48 8.9 28 -2.2 46 46 Calm 30.17 1022 10 16 0.00 0.00
5:53 pm 17:53 Sunny 47 8.3 27 -2.8 46 46 Calm 30.17 1022 10 16 0.00 0.00
6:53 pm 18:53 Clear 44 6.7 29 -1.7 55 55 SSE 3 6 30.18 1022 10 16 0.00 0.00
7:53 pm 19:53 Clear 40 4.4 30 -1.1 68 68 SE 7 11 30.20 1023 10 16 0.00 0.00
8:53 pm 20:53 Clear 39 3.9 30 -1.1 70 70 SE 8 13 30.22 1023 10 16 0.00 0.00
9:53 pm 21:53 Clear 38 3.3 30 -1.1 73 73 SSE 7 11 30.23 1024 10 16 0.00 0.00
10:53 pm 22:53 Clear 36 2.2 30 -1.1 79 79 S 6 9 30.24 1024 10 16 0.00 0.00
11:53 pm 23:53 Clear 34 1.1 28 -2.2 79 79 S 6 9 30.23 1024 10 16 0.00 0.00

Powered by AerisWeather